TimeEST,TemperatureF,Dew PointF,Humidity,Sea Level PressureIn,VisibilityMPH,Wind Direction,Wind SpeedMPH,Gust SpeedMPH,PrecipitationIn,Events,Conditions,WindDirDegrees,DateUTC
12:13 AM,57.2,48.2,72,29.76,10.0,SSW,6.9,-,N/A,,Mostly Cloudy,210,2012-12-17 05:13:00
12:37 AM,57.2,48.2,72,29.76,10.0,SSW,4.6,-,N/A,,Mostly Cloudy,210,2012-12-17 05:37:00
12:53 AM,57.9,48.9,72,29.75,10.0,SSW,3.5,-,N/A,,Mostly Cloudy,210,2012-12-17 05:53:00
1:27 AM,57.2,48.2,72,29.77,10.0,Calm,Calm,-,N/A,,Overcast,0,2012-12-17 06:27:00
1:53 AM,57.0,48.9,74,29.76,10.0,Calm,Calm,-,N/A,,Mostly Cloudy,0,2012-12-17 06:53:00
2:18 AM,57.2,48.2,72,29.77,10.0,SSW,3.5,-,N/A,,Mostly Cloudy,210,2012-12-17 07:18:00
2:30 AM,57.2,48.2,72,29.77,10.0,SSW,5.8,-,N/A,,Mostly Cloudy,200,2012-12-17 07:30:00
2:53 AM,57.0,48.9,74,29.76,10.0,South,3.5,-,N/A,,Overcast,180,2012-12-17 07:53:00
3:30 AM,55.4,50.0,82,29.78,1.8,WSW,5.8,-,0.11,Rain,Heavy Rain,240,2012-12-17 08:30:00
3:37 AM,55.4,51.8,88,29.78,1.5,Variable,5.8,-,0.16,Rain,Rain,0,2012-12-17 08:37:00
3:47 AM,53.6,50.0,88,29.78,2.0,WSW,4.6,-,0.23,Rain,Rain,240,2012-12-17 08:47:00
3:48 AM,54.0,50.0,86,29.78,2.0,SW,3.5,-,0.23,Rain,Rain,230,2012-12-17 08:48:00
3:56 AM,53.6,51.8,94,29.78,6.0,South,4.6,-,0.01,Rain,Light Rain,190,2012-12-17 08:56:00
4:53 AM,52.0,51.1,97,29.76,8.0,South,4.6,-,0.01,Rain,Light Rain,170,2012-12-17 09:53:00
5:41 AM,51.8,51.8,100,29.77,10.0,South,3.5,-,0.01,,Overcast,170,2012-12-17 10:41:00
5:53 AM,52.0,51.1,97,29.77,10.0,Calm,Calm,-,0.01,,Overcast,0,2012-12-17 10:53:00
6:00 AM,51.8,51.8,100,29.77,10.0,Calm,Calm,-,N/A,,Overcast,0,2012-12-17 11:00:00
6:38 AM,51.8,51.8,100,29.77,10.0,Calm,Calm,-,N/A,,Overcast,0,2012-12-17 11:38:00
6:53 AM,52.0,51.1,97,29.78,10.0,NNW,3.5,-,N/A,,Overcast,330,2012-12-17 11:53:00
7:15 AM,51.8,50.0,94,29.78,10.0,Calm,Calm,-,N/A,,Overcast,0,2012-12-17 12:15:00
7:53 AM,52.0,50.0,93,29.78,10.0,South,4.6,-,N/A,,Overcast,180,2012-12-17 12:53:00
8:53 AM,53.1,51.1,93,29.78,10.0,South,3.5,-,N/A,,Overcast,180,2012-12-17 13:53:00
9:53 AM,54.0,51.1,90,29.78,8.0,Calm,Calm,-,0.01,Rain,Light Rain,0,2012-12-17 14:53:00
10:53 AM,54.0,51.1,90,29.76,10.0,South,4.6,-,0.00,,Overcast,180,2012-12-17 15:53:00
11:53 AM,54.0,50.0,86,29.72,10.0,Calm,Calm,-,0.01,,Overcast,0,2012-12-17 16:53:00
12:00 PM,53.6,51.8,94,29.71,10.0,Calm,Calm,-,N/A,,Overcast,0,2012-12-17 17:00:00
12:53 PM,55.0,52.0,89,29.66,10.0,NE,3.5,-,N/A,,Overcast,50,2012-12-17 17:53:00
1:39 PM,55.4,51.8,88,29.65,3.0,Calm,Calm,-,0.03,Rain,Rain,0,2012-12-17 18:39:00
1:53 PM,53.1,50.0,89,29.64,4.0,Calm,Calm,-,0.06,Rain,Light Rain,0,2012-12-17 18:53:00
2:51 PM,53.6,51.8,94,29.63,2.5,Calm,Calm,-,0.07,Rain,Light Rain,0,2012-12-17 19:51:00
2:53 PM,53.1,52.0,96,29.62,2.5,Calm,Calm,-,0.07,Rain,Light Rain,0,2012-12-17 19:53:00
3:02 PM,53.6,51.8,94,29.63,4.0,Calm,Calm,-,0.01,Rain,Light Rain,0,2012-12-17 20:02:00
3:31 PM,53.6,51.8,94,29.62,1.5,West,3.5,-,0.03,Rain,Light Rain,260,2012-12-17 20:31:00
3:38 PM,53.6,51.8,94,29.62,1.0,Calm,Calm,-,0.03,Rain,Light Rain,0,2012-12-17 20:38:00
3:50 PM,53.6,51.8,94,29.61,1.0,NW,3.5,-,0.10,Rain,Heavy Rain,320,2012-12-17 20:50:00
3:53 PM,53.1,52.0,96,29.61,1.0,Calm,Calm,-,0.11,Rain,Rain,0,2012-12-17 20:53:00
4:09 PM,51.8,51.8,100,29.61,2.0,Calm,Calm,-,0.02,Rain,Light Rain,0,2012-12-17 21:09:00
4:19 PM,51.8,51.8,100,29.61,1.0,Calm,Calm,-,0.07,Rain,Rain,0,2012-12-17 21:19:00
4:27 PM,53.6,51.8,94,29.60,2.0,Calm,Calm,-,0.08,Rain,Light Rain,0,2012-12-17 21:27:00
4:53 PM,52.0,51.1,97,29.60,2.0,Calm,Calm,-,0.11,Rain,Light Rain,0,2012-12-17 21:53:00
4:59 PM,51.8,51.8,100,29.60,3.0,Calm,Calm,-,0.00,Rain,Light Rain,0,2012-12-17 21:59:00
7:22 PM,50.0,46.4,87,29.57,10.0,Variable,3.5,-,0.02,,Overcast,0,2012-12-18 00:22:00
7:53 PM,50.0,46.9,89,29.56,10.0,ENE,3.5,-,0.02,,Overcast,70,2012-12-18 00:53:00
8:39 PM,48.2,48.2,100,29.58,5.0,West,3.5,-,0.02,Rain,Light Rain,260,2012-12-18 01:39:00
8:53 PM,48.9,46.9,93,29.53,5.0,NNE,4.6,-,0.02,,Overcast,30,2012-12-18 01:53:00
9:53 PM,48.9,48.0,97,29.54,10.0,Calm,Calm,-,N/A,,Overcast,0,2012-12-18 02:53:00
10:10 PM,48.2,46.4,93,29.54,9.0,Calm,Calm,-,N/A,,Overcast,0,2012-12-18 03:10:00
10:37 PM,48.2,48.2,100,29.54,2.5,Calm,Calm,-,N/A,,Overcast,0,2012-12-18 03:37:00
10:45 PM,48.2,48.2,100,29.53,6.0,Calm,Calm,-,N/A,,Overcast,0,2012-12-18 03:45:00
10:53 PM,48.9,48.0,97,29.54,10.0,SW,3.5,-,N/A,,Overcast,220,2012-12-18 03:53:00
11:07 PM,48.2,46.4,93,29.53,10.0,Calm,Calm,-,N/A,,Overcast,0,2012-12-18 04:07:00
11:27 PM,48.2,48.2,100,29.55,10.0,SW,6.9,-,N/A,,Overcast,220,2012-12-18 04:27:00
11:53 PM,48.9,46.9,93,29.55,10.0,SW,6.9,-,N/A,,Overcast,220,2012-12-18 04:53:00